Regional Weather Roundup
Issued by NWS

Home | Current Version | Previous Version | Graphics & Text | Print | Product List | Glossary On
Versions: 1 2 3 4 5 6 7 8 9 10 11 12 13 14 15 16 17 18 19 20 21 22 23 24 25 26 27 28 29 30 31 32 33 34 35 36 37 38 39 40 41 42 43 44 45 46 47 48 49 50
000
ASUS43 KDTX 260510
RWRMI
MICHIGAN HOURLY REGIONAL WEATHER ROUNDUP
NATIONAL WEATHER SERVICE DETROIT/PONTIAC MI
100 AM EDT THU APR 26 2018

NOTE: "FAIR" INDICATES FEW OR NO CLOUDS BELOW 12,000 FEET WITH NO
SIGNIFICANT WEATHER AND/OR OBSTRUCTION TO VISIBILITY.

MIZ047>049-052>055-059>063-066>070-074>076-081>083-260600-
SOUTHEAST LOWER MICHIGAN

CITY           SKY/WX    TMP DP  RH WIND       PRES   REMARKS
ADRIAN         CLOUDY    44  41  89 SE6       29.97S
ALMA           FAIR      35  33  93 NW3       29.97S
ANN ARBOR      FAIR      41  36  82 CALM      29.95S
BAD AXE        FAIR      39  33  80 CALM      29.94S
CARO           FAIR      33  32  96 CALM      29.94F
DETROIT CITY   FAIR      41  35  79 N3        29.95F
DETROIT        FAIR      43  35  73 CALM      29.96S
FLINT          FAIR      38  35  89 W3        29.95F
GROSSE ILE     FAIR      40  38  93 CALM      29.95S
HILLSDALE      FAIR      39  36  87 NE3       29.94S
HOWELL         FAIR      39  37  90 CALM      29.95S

CITY           SKY/WX    TMP DP  RH WIND       PRES   REMARKS
JACKSON        FAIR      43  37  79 CALM      29.95S
LAMBERTVILLE   CLOUDY    46  41  81 E5        29.96S
LANSING        FAIR      41  37  86 CALM      29.97S
LAPEER         FAIR      37  35  93 CALM      29.94F
MASON          FAIR      40  35  82 CALM      29.95F
MONROE         FAIR      41  38  90 S5        29.95S
MT. CLEMENS    FAIR      39  39 100 W3        29.93S
PONTIAC        FAIR      40  36  86 CALM      29.93F
PORT HOPE        N/A     39  34  82 W7        29.91F WCI  34
PORT HURON     CLOUDY    39  36  87 CALM      29.94S
TRI CITIES     FAIR      38  35  89 W5        29.96F WCI  34
MIDLAND        FAIR      35  32  90 CALM      29.96S
TROY           FAIR      42  36  79 CALM      29.96F
SAGINAW HB     FAIR      36  34  93 CALM      29.95F
$$
MIZ043>046-050>051-056>058-064>065-071>073-077>080-260600-
SOUTHWEST LOWER MICHIGAN

CITY           SKY/WX    TMP DP  RH WIND       PRES   REMARKS
BATTLE CREEK   FAIR      42  33  70 CALM      29.96S
BENTON HARBOR  FAIR      35  31  85 CALM      29.97F
BIG RAPIDS     FAIR      32  28  83 CALM      29.96F
COLDWATER      FAIR      38  33  80 CALM      29.95S
FREMONT        FAIR      36  24  62 CALM      29.97F
HOLLAND        FAIR      41  29  62 CALM      29.97F
GRAND RAPIDS   FAIR      43  32  65 N5        29.96F
IONIA          FAIR      41  32  71 CALM      29.96S
KALAMAZOO      FAIR      40  32  73 NW3       29.96S
LUDINGTON      FAIR      30  29  96 CALM      29.98S
MARSHALL       FAIR      43  33  68 CALM      29.95S
MOUNT PLEASANT FAIR      39  32  75 CALM      29.96S
MUSKEGON       FAIR      39  27  62 N6        29.97F WCI  35
SOUTH HAVEN    FAIR      35  32  90 CALM      29.97F
$$
MIZ016>042-260600-
NORTHERN LOWER MICHIGAN

CITY           SKY/WX    TMP DP  RH WIND       PRES   REMARKS
ALPENA         FAIR      33  27  78 NW5       29.94F WCI  29
BEAVER ISLAND  FAIR      30  27  87 CALM      29.96F
CADILLAC       FAIR      28  27  93 CALM      29.95F
CHARLEVOIX     FAIR      33  28  82 CALM      29.99F
FRANKFORT      FAIR      31  28  89 CALM      29.97F
GAYLORD        FAIR      29  27  92 CALM      29.93F
GRAYLING       FAIR      28  26  94 CALM      29.94F
HARBOR SPRINGS FAIR      31  29  92 CALM      29.96S
HOUGHTON LAKE  FAIR      33  26  75 NW5       29.96S WCI  29
MANISTEE       FAIR      27  25  92 CALM      29.98F
OSCODA         FAIR      33  28  82 NW5       29.93F WCI  29
PELLSTON       FAIR      27  25  92 CALM      29.96F
ROGERS CITY    FAIR      32  28  82 W3        29.96F
TRAVERSE CITY  FAIR      31  28  89 CALM      29.96F
$$
MIZ007>008-015-260600-
EASTERN UPPER MICHIGAN

CITY           SKY/WX    TMP DP  RH WIND       PRES   REMARKS
KINROSS        FAIR      29  26  89 NW3       29.94F
MACKINAC ISLAN FAIR      32  25  74 NW6       29.95F WCI  26
NEWBERRY       FAIR      28  27  98 CALM      29.94F
MUNISING         N/A     30  25  81 S7        29.96R WCI  23
$$
MIZ004>006-011>014-085-260600-
CENTRAL UPPER MICHIGAN

CITY           SKY/WX    TMP DP  RH WIND       PRES   REMARKS
MANISTIQUE     FAIR      29  22  75 W5        29.96F WCI  24
ESCANABA       FAIR      29  25  85 NW3       29.98S
MENOMINEE      FAIR      36  27  69 SW5       29.98F WCI  32
SAWYER-GWINN   FAIR      31  23  72 CALM      29.94F
$$
MIZ001>003-009>011-084-260600-
WESTERN UPPER MICHIGAN

CITY           SKY/WX    TMP DP  RH WIND       PRES   REMARKS
IRON MOUNTAIN  FAIR      35  26  69 CALM      29.94S
HOUGHTON       FAIR      36  19  50 CALM      29.90F
COPPER HARBOR    N/A     34  24  67 CALM      29.91F
IRONWOOD       FAIR      32  24  72 CALM      29.93S
$$

ABBREVIATIONS USED IN REMARKS
   TC - TEMPERATURE IN CELSIUS
  WCI - WIND CHILL INDEX
   HX - HEAT INDEX
  VSB - VISIBILITY





USA.gov is the U.S. government's official web portal to all federal, state and local government web resources and services.